Weather in Putilovo

Russia / Saint-Petersburg and Leningrad Oblast     59°52′03″N   31°26′47″E
temp.,
°C
wind,
m/s
gust,
m/s
humid.,
%
clouds,
%
prec.,
mm/h
press.,
hPa
HPBL,
m
10 april, sat
sat1000:00+3ssw71692100 0.4 10091341
03:00+4ssw71576100 0.7 10091279
06:00+4ssw7157774 0.0 10091129
09:00+5ssw7137260 0.0 10101326
12:00+5ssw61287100 0.1 10101091
15:00+4ssw51296100 1.0 1011800
18:00+4sw41090100 0.9 10111020
21:00+3wsw411641 1.1 1014635
11 april, sun
sun1100:00+1sw411720 0.0 1017487
03:00−1sw310825 0.0 1020303
06:00−1ssw311845 0.0 1021270
09:00+4sw410600 0.0 1023480
12:00+8sw47405 0.0 10251505
15:00+10sw35335 0.0 10262240
18:00+9s35405 0.0 1027584
21:00+3sse2355100 0.0 102951
12 april, mon
mon1200:00+4se2655100 0.0 1029114
03:00+3se276556 0.0 1029133
06:00+2se310905 0.0 1027201
09:00+8sse4127983 0.0 1026401
12:00+14s595475 0.0 1025868
15:00+16s59458 0.0 10241351
18:00+15s49509 0.0 10231091
21:00+9sse29744 0.0 1022148
13 april, tue
tue1300:00+8sse312795 0.0 1021281
03:00+7sse3984100 0.0 1020217
06:00+5sse3789100 0.0 1019157
09:00+9s377098 0.0 1019296
12:00+14s4651100 0.0 1018859
15:00+16ssw464017 0.0 10181740
18:00+14wsw2355100 0.0 101785
21:00+10nnw117082 0.0 101810
14 april, wed
wed1400:00+9ne1176100 0.0 101814
03:00+8ne1182100 0.0 101710
06:00+5nw119394 0.0 101616
09:00+8nw3382100 0.0 1016335
12:00+9nnw3371100 0.0 1017635
15:00+9nnw336695 0.0 1017846
18:00+5nw4676100 0.0 1018481
21:00+3nnw3786100 0.3 1019410